Back to catalog

ARIANE 1 R/B

AliveSSO
NORAD 16615·ROCKET BODY·🇫🇷 France

Launched Feb 22, 1986 from Guiana Space Centre

Loading…

Next Passes (next 24 hours)

TLE

FreshSource: Space-Track

Epoch: Sep 14, 2026, 00:49 UTC

1 16615U 86019C   26257.03435881  .00000149  00000-0  68588-4 0  9990
2 16615  98.2185 265.1865 0012762 113.9214 266.5677 14.33381991122619

Track ARIANE 1 R/B in real time with AllMySat

Download on the App Store